SAS82C EKCH-LGSA

Flight info

Callsign SAS82C
Flight time 3h 11m
Altitude 35000
Route SALLO M44 KOGIM M725 MASOR DCT POGAB DCT OMELO DCT VOZ DCT LANUX DCT SASAL DCT KOPRY DCT LURID DCT GACMO DCT PETAK DCT DIMIS UL604 TRL UL612 RUSOS
Aircraft A320/M-SDE3FGHIJ1RWXYZ/LB1

Departure

Time 2026-04-25 12:48
Airport Copenhagen Kastrup Airport (EKCH)

Arrival

Time 2026-04-25 15:59
Airport Chania International Airport (LGSA)
Time Latitude Longitude Altitude Speed Heading
2026-04-25 12:05 55.62696 12.64583 17 ft 0 kts 282°
2026-04-25 12:39 55.62692 12.64615 18 ft 4 kts 284°
2026-04-25 12:39 55.62685 12.64659 18 ft 4 kts 288°
2026-04-25 12:39 55.62675 12.64706 21 ft 4 kts 290°
2026-04-25 12:40 55.62667 12.64751 18 ft 3 kts 282°
2026-04-25 12:40 55.62666 12.64756 18 ft 0 kts 282°
2026-04-25 12:42 55.62667 12.64749 18 ft 2 kts 282°
2026-04-25 12:42 55.62663 12.64690 19 ft 6 kts 233°
2026-04-25 12:43 55.62618 12.64659 17 ft 8 kts 194°
2026-04-25 12:43 55.62555 12.64650 17 ft 10 kts 179°
2026-04-25 12:43 55.62513 12.64654 17 ft 3 kts 177°
2026-04-25 12:44 55.62505 12.64655 18 ft 0 kts 175°
2026-04-25 12:44 55.62504 12.64655 18 ft 1 kts 175°
2026-04-25 12:44 55.62410 12.64675 19 ft 15 kts 178°
2026-04-25 12:45 55.62310 12.64637 19 ft 14 kts 224°
2026-04-25 12:45 55.62293 12.64586 17 ft 0 kts 245°
2026-04-25 12:45 55.62258 12.64456 16 ft 14 kts 243°
2026-04-25 12:46 55.62177 12.64328 16 ft 17 kts 204°
2026-04-25 12:46 55.62068 12.64237 17 ft 18 kts 207°
2026-04-25 12:46 55.61950 12.64137 19 ft 20 kts 206°
2026-04-25 12:46 55.61812 12.64076 17 ft 21 kts 180°
2026-04-25 12:47 55.61668 12.64089 21 ft 16 kts 179°
2026-04-25 12:47 55.61544 12.63948 19 ft 42 kts 221°
2026-04-25 12:47 55.61156 12.63349 21 ft 103 kts 220°
2026-04-25 12:47 55.60442 12.62233 34 ft 151 kts 217°
2026-04-25 12:48 55.59657 12.61167 555 ft 146 kts 227°
2026-04-25 12:48 55.58888 12.60028 1153 ft 144 kts 232°
2026-04-25 12:48 55.58110 12.58784 1512 ft 160 kts 232°
2026-04-25 12:48 55.57232 12.57361 1722 ft 182 kts 231°
2026-04-25 12:49 55.56177 12.55861 1921 ft 212 kts 218°
2026-04-25 12:49 55.54739 12.54708 2238 ft 241 kts 208°
2026-04-25 12:49 55.53104 12.53719 2868 ft 254 kts 205°
2026-04-25 12:49 55.51397 12.52776 3671 ft 260 kts 205°
2026-04-25 12:50 55.50247 12.52140 4228 ft 263 kts 206°
2026-04-25 12:50 55.47883 12.50788 5289 ft 271 kts 206°
2026-04-25 12:50 55.46044 12.49869 6086 ft 283 kts 194°
2026-04-25 12:50 55.44030 12.50283 6799 ft 306 kts 163°
2026-04-25 12:51 55.42279 12.52517 7491 ft 321 kts 129°
2026-04-25 12:51 55.41248 12.56015 8196 ft 326 kts 109°
2026-04-25 12:51 55.40534 12.59830 8914 ft 331 kts 104°
2026-04-25 12:51 55.39906 12.63768 9613 ft 336 kts 103°
2026-04-25 12:52 55.39296 12.67787 10085 ft 350 kts 103°
2026-04-25 12:52 55.38643 12.72045 10242 ft 372 kts 104°
2026-04-25 12:52 55.37925 12.76523 10577 ft 386 kts 105°
2026-04-25 12:52 55.37160 12.81087 11167 ft 391 kts 105°
2026-04-25 12:53 55.36365 12.85691 11790 ft 396 kts 106°
2026-04-25 12:53 55.35551 12.90344 12392 ft 400 kts 106°
2026-04-25 12:53 55.34551 12.94935 12994 ft 405 kts 117°
2026-04-25 12:53 55.33078 12.99156 13616 ft 406 kts 130°
2026-04-25 12:54 55.31193 13.02840 14160 ft 406 kts 142°
2026-04-25 12:54 55.28963 13.05847 14692 ft 403 kts 154°
2026-04-25 12:54 55.26501 13.08157 15214 ft 402 kts 160°
2026-04-25 12:54 55.23983 13.10365 15737 ft 406 kts 160°
2026-04-25 12:55 55.21446 13.12592 16250 ft 410 kts 160°
2026-04-25 12:55 55.19752 13.14080 16603 ft 413 kts 161°
2026-04-25 12:55 55.16291 13.17114 17315 ft 418 kts 161°
2026-04-25 12:55 55.13680 13.19405 17838 ft 422 kts 161°
2026-04-25 12:56 55.11040 13.21719 18333 ft 426 kts 161°
2026-04-25 12:56 55.08379 13.24050 18811 ft 430 kts 161°
2026-04-25 12:56 55.05695 13.26399 19289 ft 432 kts 161°
2026-04-25 12:56 55.03003 13.28753 19850 ft 434 kts 161°
2026-04-25 12:57 55.00330 13.31085 20369 ft 436 kts 161°
2026-04-25 12:57 54.97567 13.33486 20872 ft 439 kts 161°
2026-04-25 12:57 54.94827 13.35861 21366 ft 442 kts 161°
2026-04-25 12:57 54.92059 13.37955 21832 ft 437 kts 169°
2026-04-25 12:58 54.89145 13.39297 22295 ft 429 kts 179°
2026-04-25 12:58 54.86200 13.40091 22771 ft 430 kts 181°
2026-04-25 12:58 54.83231 13.40872 23265 ft 432 kts 181°
2026-04-25 12:58 54.80249 13.41665 23666 ft 435 kts 181°
2026-04-25 12:59 54.77247 13.42472 23992 ft 438 kts 180°
2026-04-25 12:59 54.74229 13.43289 24360 ft 440 kts 180°
2026-04-25 12:59 54.71193 13.44108 24736 ft 443 kts 180°
2026-04-25 12:59 54.68142 13.44927 25093 ft 445 kts 180°
2026-04-25 13:00 54.65071 13.45747 25443 ft 448 kts 180°
2026-04-25 13:00 54.64028 13.46025 25556 ft 449 kts 180°
2026-04-25 13:00 54.58877 13.47395 26133 ft 452 kts 180°
2026-04-25 13:00 54.55760 13.48223 26471 ft 455 kts 180°
2026-04-25 13:01 54.52623 13.49059 26807 ft 457 kts 180°
2026-04-25 13:01 54.49474 13.49897 27075 ft 459 kts 179°
2026-04-25 13:01 54.46310 13.50722 27447 ft 461 kts 179°
2026-04-25 13:01 54.43132 13.51530 27800 ft 462 kts 180°
2026-04-25 13:02 54.39945 13.52324 28144 ft 464 kts 180°
2026-04-25 13:02 54.36741 13.53116 28472 ft 466 kts 180°
2026-04-25 13:02 54.33525 13.53915 28776 ft 469 kts 179°
2026-04-25 13:02 54.30288 13.54730 29083 ft 471 kts 179°
2026-04-25 13:03 54.27038 13.55569 29403 ft 473 kts 179°
2026-04-25 13:03 54.24843 13.56149 29695 ft 473 kts 179°
2026-04-25 13:03 54.21592 13.57015 30035 ft 473 kts 178°
2026-04-25 13:03 54.17281 13.58157 30479 ft 473 kts 178°
2026-04-25 13:04 54.15085 13.58733 30726 ft 473 kts 178°
2026-04-25 13:04 54.10775 13.59856 31214 ft 473 kts 178°
2026-04-25 13:04 54.07527 13.60697 31590 ft 472 kts 178°
2026-04-25 13:04 54.05330 13.61263 31843 ft 472 kts 178°
2026-04-25 13:05 54.02082 13.62099 32216 ft 472 kts 178°
2026-04-25 13:05 53.98841 13.62933 32596 ft 471 kts 178°
2026-04-25 13:05 53.95599 13.63767 32919 ft 471 kts 178°
2026-04-25 13:05 53.92358 13.64596 33294 ft 471 kts 178°
2026-04-25 13:06 53.89117 13.65328 33662 ft 469 kts 180°
2026-04-25 13:06 53.85876 13.65923 34003 ft 468 kts 181°
2026-04-25 13:06 53.82637 13.66429 34279 ft 467 kts 182°
2026-04-25 13:06 53.79409 13.66896 34564 ft 466 kts 182°
2026-04-25 13:07 53.76176 13.67368 34832 ft 467 kts 181°
2026-04-25 13:07 53.72933 13.67866 34929 ft 470 kts 181°
2026-04-25 13:07 53.66409 13.68956 34927 ft 472 kts 180°
2026-04-25 13:08 53.59864 13.70093 34931 ft 473 kts 180°
2026-04-25 13:08 53.53327 13.71203 34934 ft 472 kts 181°
2026-04-25 13:09 53.46785 13.72299 34934 ft 472 kts 180°
2026-04-25 13:09 53.40239 13.73402 34911 ft 473 kts 180°
2026-04-25 13:10 53.33695 13.74487 34936 ft 473 kts 180°
2026-04-25 13:10 53.27145 13.75565 34958 ft 473 kts 180°
2026-04-25 13:11 53.20594 13.76643 34953 ft 473 kts 180°
2026-04-25 13:11 53.14048 13.77721 34933 ft 473 kts 180°
2026-04-25 13:12 53.07504 13.78796 34952 ft 472 kts 180°
2026-04-25 13:12 53.02025 13.79680 34965 ft 472 kts 180°
2026-04-25 13:13 52.94381 13.80930 34987 ft 472 kts 180°
2026-04-25 13:13 52.87803 13.82011 34974 ft 471 kts 180°
2026-04-25 13:14 52.81286 13.83075 34977 ft 470 kts 180°
2026-04-25 13:14 52.74775 13.84124 34976 ft 470 kts 180°
2026-04-25 13:15 52.68271 13.85113 34987 ft 469 kts 181°
2026-04-25 13:15 52.61767 13.85721 34996 ft 467 kts 183°
2026-04-25 13:16 52.55230 13.86152 35003 ft 467 kts 183°
2026-04-25 13:16 52.48730 13.86634 35009 ft 468 kts 182°
2026-04-25 13:17 52.42232 13.87189 34972 ft 468 kts 182°
2026-04-25 13:17 52.35739 13.87763 34995 ft 467 kts 182°
2026-04-25 13:18 52.29249 13.88320 35009 ft 467 kts 182°
2026-04-25 13:18 52.22761 13.88860 35009 ft 466 kts 183°
2026-04-25 13:19 52.16285 13.89389 34979 ft 466 kts 183°
2026-04-25 13:19 52.10879 13.89831 34998 ft 466 kts 183°
2026-04-25 13:20 52.03292 13.90449 35013 ft 465 kts 183°
2026-04-25 13:20 51.96825 13.90986 35014 ft 465 kts 183°
2026-04-25 13:21 51.90364 13.91522 34986 ft 465 kts 183°
2026-04-25 13:21 51.83901 13.92054 35005 ft 465 kts 183°
2026-04-25 13:22 51.77442 13.92586 35008 ft 465 kts 183°
2026-04-25 13:23 51.67753 13.93379 34989 ft 465 kts 183°
2026-04-25 13:23 51.61297 13.93892 35005 ft 464 kts 182°
2026-04-25 13:24 51.54843 13.94428 35009 ft 464 kts 182°
2026-04-25 13:24 51.48392 13.94952 35020 ft 464 kts 182°
2026-04-25 13:25 51.41944 13.95467 34988 ft 464 kts 182°
2026-04-25 13:25 51.35507 13.95981 35007 ft 463 kts 182°
2026-04-25 13:26 51.29064 13.96492 35029 ft 463 kts 182°
2026-04-25 13:26 51.22666 13.97001 35038 ft 463 kts 182°
2026-04-25 13:27 51.16187 13.97522 35025 ft 463 kts 182°
2026-04-25 13:27 51.09796 13.98031 35034 ft 463 kts 182°
2026-04-25 13:28 51.03361 13.98542 35036 ft 463 kts 182°
2026-04-25 13:28 50.96925 13.99050 35036 ft 463 kts 182°
2026-04-25 13:29 50.90492 13.99555 35022 ft 462 kts 181°
2026-04-25 13:29 50.84077 14.00527 35027 ft 467 kts 171°
2026-04-25 13:30 50.77942 14.04099 35027 ft 472 kts 159°
2026-04-25 13:30 50.74934 14.06184 35027 ft 472 kts 159°
2026-04-25 13:31 50.65893 14.12376 35033 ft 471 kts 159°
2026-04-25 13:31 50.59878 14.16482 35036 ft 470 kts 159°
2026-04-25 13:32 50.53882 14.20578 35034 ft 470 kts 160°
2026-04-25 13:32 50.47886 14.24646 35030 ft 469 kts 160°
2026-04-25 13:33 50.41892 14.28696 35023 ft 469 kts 160°
2026-04-25 13:33 50.35907 14.32735 35034 ft 468 kts 160°
2026-04-25 13:34 50.29927 14.36764 35041 ft 468 kts 160°
2026-04-25 13:34 50.23913 14.40805 35032 ft 467 kts 161°
2026-04-25 13:35 50.17979 14.44782 35023 ft 467 kts 161°
2026-04-25 13:35 50.12008 14.48777 35019 ft 467 kts 161°
2026-04-25 13:36 50.06033 14.52752 35019 ft 467 kts 161°
2026-04-25 13:36 50.00058 14.56714 35017 ft 467 kts 161°
2026-04-25 13:37 49.94086 14.60683 34998 ft 467 kts 161°
2026-04-25 13:37 49.88111 14.64637 35017 ft 466 kts 162°
2026-04-25 13:38 49.82148 14.68557 35033 ft 465 kts 162°
2026-04-25 13:38 49.77157 14.71839 35036 ft 465 kts 162°
2026-04-25 13:39 49.71208 14.75744 35035 ft 464 kts 162°
2026-04-25 13:39 49.65264 14.79635 35023 ft 463 kts 163°
2026-04-25 13:40 49.59331 14.83493 35044 ft 462 kts 163°
2026-04-25 13:40 49.53452 14.87564 35035 ft 467 kts 155°
2026-04-25 13:41 49.48167 14.93395 35031 ft 472 kts 147°
2026-04-25 13:41 49.42907 14.99542 35016 ft 472 kts 147°
2026-04-25 13:42 49.37709 15.05566 35034 ft 471 kts 147°
2026-04-25 13:42 49.32476 15.11617 35029 ft 471 kts 147°
2026-04-25 13:43 49.27246 15.17661 35030 ft 471 kts 147°
2026-04-25 13:43 49.22012 15.23690 35044 ft 471 kts 148°
2026-04-25 13:44 49.16778 15.29705 35011 ft 471 kts 148°
2026-04-25 13:44 49.11539 15.35718 35017 ft 471 kts 148°
2026-04-25 13:45 49.06297 15.41709 35021 ft 471 kts 148°
2026-04-25 13:45 49.01046 15.47692 35026 ft 471 kts 148°
2026-04-25 13:46 48.95794 15.53657 35027 ft 471 kts 148°
2026-04-25 13:46 48.90528 15.59580 35005 ft 469 kts 152°
2026-04-25 13:47 48.84759 15.63833 35018 ft 457 kts 166°
2026-04-25 13:47 48.78779 15.67122 35022 ft 457 kts 166°
2026-04-25 13:48 48.72800 15.70415 35013 ft 457 kts 166°
2026-04-25 13:48 48.66820 15.73700 35017 ft 457 kts 166°
2026-04-25 13:49 48.60842 15.76972 35011 ft 457 kts 166°
2026-04-25 13:49 48.54872 15.80242 35018 ft 456 kts 166°
2026-04-25 13:50 48.48904 15.83500 35019 ft 456 kts 166°
2026-04-25 13:50 48.42933 15.86743 35019 ft 456 kts 166°
2026-04-25 13:51 48.36964 15.89973 35001 ft 456 kts 166°
2026-04-25 13:51 48.30995 15.93195 35009 ft 456 kts 166°
2026-04-25 13:52 48.25027 15.96421 35013 ft 456 kts 166°
2026-04-25 13:52 48.19057 15.99636 35019 ft 456 kts 166°
2026-04-25 13:53 48.13084 16.02846 35010 ft 456 kts 166°
2026-04-25 13:53 48.07120 16.06040 35011 ft 455 kts 166°
2026-04-25 13:54 48.01152 16.09232 35019 ft 455 kts 166°
2026-04-25 13:54 47.95190 16.12404 35021 ft 455 kts 166°
2026-04-25 13:55 47.89229 16.15575 35003 ft 454 kts 166°
2026-04-25 13:55 47.83272 16.18740 35010 ft 455 kts 166°
2026-04-25 13:56 47.77311 16.21890 35019 ft 455 kts 166°
2026-04-25 13:56 47.71348 16.25035 35017 ft 455 kts 166°
2026-04-25 13:57 47.65416 16.28164 35014 ft 455 kts 166°
2026-04-25 13:57 47.59444 16.31306 35008 ft 455 kts 166°
2026-04-25 13:58 47.53466 16.34434 35008 ft 456 kts 166°
2026-04-25 13:58 47.47482 16.37550 35010 ft 456 kts 166°
2026-04-25 13:59 47.41495 16.40672 35012 ft 456 kts 166°
2026-04-25 13:59 47.35508 16.43789 35014 ft 456 kts 166°
2026-04-25 14:00 47.31508 16.45862 35016 ft 456 kts 166°
2026-04-25 14:00 47.23534 16.49899 34992 ft 454 kts 167°
2026-04-25 14:01 47.17510 16.52726 35008 ft 453 kts 168°
2026-04-25 14:01 47.11511 16.55513 35015 ft 453 kts 168°
2026-04-25 14:02 47.05472 16.58345 35017 ft 452 kts 167°
2026-04-25 14:02 46.99480 16.61170 35009 ft 452 kts 167°
2026-04-25 14:03 46.93496 16.64010 35012 ft 452 kts 167°
2026-04-25 14:03 46.87507 16.66838 35015 ft 452 kts 167°
2026-04-25 14:04 46.81520 16.69651 35023 ft 452 kts 167°
2026-04-25 14:04 46.75531 16.72455 35002 ft 451 kts 167°
2026-04-25 14:05 46.69548 16.75237 35013 ft 452 kts 167°
2026-04-25 14:05 46.63564 16.78012 35016 ft 451 kts 167°
2026-04-25 14:06 46.57580 16.80793 35029 ft 452 kts 167°
2026-04-25 14:06 46.51586 16.83581 35011 ft 452 kts 167°
2026-04-25 14:07 46.45597 16.86356 35014 ft 452 kts 167°
2026-04-25 14:07 46.39599 16.89124 35016 ft 452 kts 167°
2026-04-25 14:08 46.33643 16.91867 35029 ft 452 kts 167°
2026-04-25 14:08 46.27604 16.94647 35012 ft 452 kts 167°
2026-04-25 14:09 46.21604 16.97362 35019 ft 451 kts 168°
2026-04-25 14:09 46.15599 16.99783 35031 ft 451 kts 169°
2026-04-25 14:10 46.09496 17.02142 35013 ft 451 kts 169°
2026-04-25 14:10 46.03437 17.04531 35021 ft 451 kts 169°
2026-04-25 14:11 45.97428 17.06937 35031 ft 451 kts 169°
2026-04-25 14:11 45.91375 17.09361 35030 ft 451 kts 169°
2026-04-25 14:12 45.85328 17.11774 35021 ft 451 kts 168°
2026-04-25 14:12 45.79283 17.14173 35031 ft 451 kts 168°
2026-04-25 14:13 45.73239 17.16566 35023 ft 451 kts 168°
2026-04-25 14:13 45.67192 17.18961 35023 ft 451 kts 168°
2026-04-25 14:14 45.61144 17.21357 35014 ft 451 kts 168°
2026-04-25 14:14 45.55100 17.23742 35024 ft 451 kts 168°
2026-04-25 14:15 45.49051 17.26104 35024 ft 451 kts 168°
2026-04-25 14:15 45.43004 17.28467 35023 ft 450 kts 168°
2026-04-25 14:16 45.36963 17.30831 35025 ft 451 kts 168°
2026-04-25 14:16 45.30917 17.33184 35019 ft 451 kts 168°
2026-04-25 14:17 45.24865 17.35538 35016 ft 451 kts 168°
2026-04-25 14:17 45.18810 17.37891 35015 ft 451 kts 168°
2026-04-25 14:18 45.12779 17.40391 35014 ft 454 kts 161°
2026-04-25 14:18 45.07895 17.43321 35019 ft 455 kts 160°
2026-04-25 14:19 45.02073 17.46832 35026 ft 455 kts 160°
2026-04-25 14:19 44.96247 17.50330 35013 ft 455 kts 160°
2026-04-25 14:20 44.90459 17.53794 35014 ft 455 kts 160°
2026-04-25 14:20 44.84638 17.57266 35018 ft 455 kts 160°
2026-04-25 14:21 44.78811 17.60742 35013 ft 455 kts 160°
2026-04-25 14:21 44.72989 17.64205 35026 ft 454 kts 160°
2026-04-25 14:22 44.67167 17.67658 35036 ft 454 kts 159°
2026-04-25 14:22 44.61349 17.71111 35033 ft 454 kts 159°
2026-04-25 14:23 44.55528 17.74549 35029 ft 454 kts 159°
2026-04-25 14:23 44.49705 17.77983 35032 ft 454 kts 159°
2026-04-25 14:24 44.43882 17.81412 35041 ft 454 kts 159°
2026-04-25 14:24 44.38060 17.84833 35037 ft 454 kts 159°
2026-04-25 14:25 44.32233 17.88244 35031 ft 454 kts 159°
2026-04-25 14:25 44.26402 17.91643 35031 ft 454 kts 159°
2026-04-25 14:26 44.20566 17.95052 35036 ft 455 kts 159°
2026-04-25 14:26 44.14734 17.98455 35042 ft 455 kts 159°
2026-04-25 14:27 44.08897 18.01849 35046 ft 454 kts 159°
2026-04-25 14:27 44.03065 18.05236 35046 ft 454 kts 159°
2026-04-25 14:28 43.97229 18.08607 35044 ft 454 kts 159°
2026-04-25 14:28 43.91387 18.11968 35035 ft 455 kts 158°
2026-04-25 14:29 43.85539 18.15333 35043 ft 455 kts 158°
2026-04-25 14:29 43.79693 18.18693 35047 ft 455 kts 158°
2026-04-25 14:30 43.73853 18.22051 35045 ft 454 kts 158°
2026-04-25 14:30 43.65103 18.27061 35049 ft 454 kts 158°
2026-04-25 14:31 43.59268 18.30383 35050 ft 453 kts 158°
2026-04-25 14:31 43.53438 18.33694 35051 ft 453 kts 158°
2026-04-25 14:32 43.47607 18.36997 35042 ft 453 kts 158°
2026-04-25 14:32 43.41792 18.40302 35043 ft 452 kts 158°
2026-04-25 14:33 43.35982 18.43597 35052 ft 452 kts 158°
2026-04-25 14:33 43.30170 18.46874 35034 ft 451 kts 158°
2026-04-25 14:34 43.24356 18.50152 35030 ft 452 kts 158°
2026-04-25 14:34 43.18533 18.53422 35028 ft 452 kts 158°
2026-04-25 14:35 43.12712 18.56677 35023 ft 452 kts 158°
2026-04-25 14:35 43.06892 18.59967 35022 ft 453 kts 157°
2026-04-25 14:36 43.01068 18.63263 35029 ft 453 kts 157°
2026-04-25 14:36 42.95244 18.66543 35029 ft 453 kts 157°
2026-04-25 14:37 42.89427 18.69811 35029 ft 452 kts 158°
2026-04-25 14:37 42.83605 18.73071 35026 ft 452 kts 157°
2026-04-25 14:38 42.77788 18.76334 35026 ft 452 kts 157°
2026-04-25 14:38 42.71971 18.79582 35037 ft 452 kts 157°
2026-04-25 14:39 42.66144 18.82825 35033 ft 453 kts 157°
2026-04-25 14:39 42.60307 18.86064 35029 ft 453 kts 157°
2026-04-25 14:40 42.54483 18.89302 35024 ft 453 kts 157°
2026-04-25 14:40 42.48652 18.92527 35017 ft 453 kts 157°
2026-04-25 14:41 42.42783 18.95763 35008 ft 452 kts 157°
2026-04-25 14:41 42.36958 18.98980 35005 ft 452 kts 156°
2026-04-25 14:42 42.33104 19.01104 35003 ft 452 kts 156°
2026-04-25 14:42 42.25323 19.05385 35005 ft 451 kts 157°
2026-04-25 14:43 42.19510 19.08562 35011 ft 450 kts 156°
2026-04-25 14:43 42.13705 19.11739 35037 ft 450 kts 156°
2026-04-25 14:44 42.07908 19.14910 35031 ft 450 kts 156°
2026-04-25 14:44 42.02111 19.18066 35027 ft 450 kts 156°
2026-04-25 14:45 41.96308 19.21227 35027 ft 449 kts 156°
2026-04-25 14:45 41.90511 19.24378 35037 ft 449 kts 156°
2026-04-25 14:46 41.84716 19.27510 35037 ft 449 kts 156°
2026-04-25 14:46 41.78922 19.30635 35036 ft 449 kts 156°
2026-04-25 14:47 41.75248 19.33134 35042 ft 446 kts 147°
2026-04-25 14:47 41.68062 19.38703 35045 ft 446 kts 147°
2026-04-25 14:48 41.62698 19.42858 35045 ft 446 kts 148°
2026-04-25 14:48 41.57328 19.46992 35045 ft 445 kts 147°
2026-04-25 14:49 41.51959 19.51127 35043 ft 446 kts 147°
2026-04-25 14:49 41.46580 19.55249 35044 ft 445 kts 147°
2026-04-25 14:50 41.41204 19.59354 35047 ft 445 kts 147°
2026-04-25 14:50 41.35831 19.63460 35044 ft 445 kts 147°
2026-04-25 14:51 41.30456 19.67566 35046 ft 445 kts 147°
2026-04-25 14:51 41.25084 19.71663 35049 ft 445 kts 147°
2026-04-25 14:52 41.19709 19.75740 35044 ft 445 kts 147°
2026-04-25 14:52 41.16116 19.78461 35043 ft 444 kts 147°
2026-04-25 14:53 41.08971 19.83879 35046 ft 445 kts 147°
2026-04-25 14:53 41.03598 19.87952 35040 ft 445 kts 147°
2026-04-25 14:54 40.98224 19.92003 35031 ft 445 kts 147°
2026-04-25 14:54 40.92841 19.96042 35028 ft 445 kts 147°
2026-04-25 14:55 40.87463 20.00083 35026 ft 445 kts 147°
2026-04-25 14:55 40.82088 20.04117 35029 ft 444 kts 147°
2026-04-25 14:56 40.76713 20.08148 35027 ft 444 kts 147°
2026-04-25 14:56 40.72251 20.11482 35025 ft 444 kts 147°
2026-04-25 14:57 40.66856 20.15503 35024 ft 443 kts 147°
2026-04-25 14:57 40.61484 20.19500 35023 ft 444 kts 147°
2026-04-25 14:58 40.56112 20.23496 35023 ft 443 kts 147°
2026-04-25 14:58 40.50744 20.27482 35019 ft 443 kts 147°
2026-04-25 14:59 40.45376 20.31460 35017 ft 443 kts 147°
2026-04-25 14:59 40.40011 20.35426 35010 ft 442 kts 147°
2026-04-25 15:00 40.34649 20.39381 35012 ft 442 kts 147°
2026-04-25 15:00 40.29293 20.43325 35013 ft 441 kts 147°
2026-04-25 15:01 40.23940 20.47252 35021 ft 441 kts 147°
2026-04-25 15:01 40.18598 20.51170 35012 ft 440 kts 146°
2026-04-25 15:02 40.13262 20.55082 35005 ft 440 kts 147°
2026-04-25 15:02 40.07924 20.58986 34998 ft 439 kts 147°
2026-04-25 15:03 40.02464 20.62636 35010 ft 442 kts 150°
2026-04-25 15:03 39.96861 20.65944 35004 ft 442 kts 152°
2026-04-25 15:04 39.91251 20.69224 35013 ft 442 kts 151°
2026-04-25 15:04 39.85688 20.72586 35014 ft 441 kts 150°
2026-04-25 15:05 39.80128 20.75994 35013 ft 442 kts 150°
2026-04-25 15:06 39.71788 20.81065 35025 ft 441 kts 151°
2026-04-25 15:06 39.66261 20.84536 35019 ft 440 kts 148°
2026-04-25 15:07 39.60863 20.88280 35032 ft 440 kts 147°
2026-04-25 15:07 39.55485 20.92060 35021 ft 440 kts 147°
2026-04-25 15:08 39.50075 20.95785 35019 ft 440 kts 148°
2026-04-25 15:08 39.44648 20.99468 35013 ft 440 kts 148°
2026-04-25 15:09 39.39222 21.03152 35025 ft 441 kts 148°
2026-04-25 15:09 39.31083 21.08667 35013 ft 440 kts 148°
2026-04-25 15:10 39.25650 21.12348 35010 ft 440 kts 148°
2026-04-25 15:11 39.17512 21.17837 35015 ft 441 kts 148°
2026-04-25 15:11 39.12076 21.21495 35020 ft 441 kts 148°
2026-04-25 15:12 39.03919 21.26980 35014 ft 441 kts 148°
2026-04-25 15:12 39.00275 21.29422 35015 ft 441 kts 148°
2026-04-25 15:13 38.90262 21.36126 35025 ft 441 kts 148°
2026-04-25 15:14 38.84824 21.39760 35015 ft 440 kts 148°
2026-04-25 15:14 38.79381 21.43393 35017 ft 441 kts 148°
2026-04-25 15:15 38.73935 21.47014 35020 ft 441 kts 148°
2026-04-25 15:15 38.68488 21.50635 35010 ft 441 kts 148°
2026-04-25 15:16 38.63050 21.54253 35017 ft 441 kts 148°
2026-04-25 15:16 38.54874 21.59655 35010 ft 441 kts 148°
2026-04-25 15:17 38.46696 21.65053 35000 ft 441 kts 148°
2026-04-25 15:18 38.41246 21.68652 35001 ft 441 kts 148°
2026-04-25 15:18 38.33073 21.74031 35013 ft 441 kts 148°
2026-04-25 15:19 38.29429 21.76418 35005 ft 440 kts 148°
2026-04-25 15:19 38.22176 21.81166 35027 ft 440 kts 148°
2026-04-25 15:20 38.16733 21.84722 35011 ft 440 kts 148°
2026-04-25 15:20 38.11294 21.88274 35029 ft 440 kts 148°
2026-04-25 15:21 38.05857 21.91823 35023 ft 439 kts 148°
2026-04-25 15:21 38.00414 21.95365 35019 ft 439 kts 148°
2026-04-25 15:22 37.94974 21.98895 35019 ft 439 kts 148°
2026-04-25 15:22 37.89536 22.02420 35023 ft 439 kts 148°
2026-04-25 15:23 37.84058 22.05968 35020 ft 439 kts 148°
2026-04-25 15:23 37.78627 22.09480 35020 ft 439 kts 148°
2026-04-25 15:24 37.73186 22.12991 35023 ft 439 kts 148°
2026-04-25 15:24 37.69586 22.15306 35026 ft 439 kts 148°
2026-04-25 15:25 37.62304 22.19986 35035 ft 439 kts 149°
2026-04-25 15:25 37.56909 22.23453 35021 ft 439 kts 149°
2026-04-25 15:26 37.51422 22.26968 35016 ft 439 kts 149°
2026-04-25 15:26 37.45975 22.30456 35015 ft 439 kts 149°
2026-04-25 15:27 37.40822 22.34467 35018 ft 432 kts 135°
2026-04-25 15:27 37.36927 22.40034 35014 ft 426 kts 123°
2026-04-25 15:28 37.35173 22.43106 35003 ft 427 kts 123°
2026-04-25 15:28 37.31698 22.49162 34997 ft 428 kts 123°
2026-04-25 15:29 37.28205 22.55223 34988 ft 429 kts 123°
2026-04-25 15:29 37.24695 22.61308 34989 ft 431 kts 123°
2026-04-25 15:30 37.21175 22.67403 34991 ft 432 kts 123°
2026-04-25 15:30 37.17647 22.73498 34996 ft 432 kts 123°
2026-04-25 15:31 37.14117 22.79598 35011 ft 433 kts 124°
2026-04-25 15:31 37.10575 22.85697 35006 ft 433 kts 124°
2026-04-25 15:32 37.07598 22.90815 35007 ft 434 kts 124°
2026-04-25 15:32 37.04041 22.96922 35013 ft 434 kts 124°
2026-04-25 15:33 36.98693 23.06091 35005 ft 435 kts 124°
2026-04-25 15:33 36.95124 23.12194 35008 ft 435 kts 124°
2026-04-25 15:34 36.91537 23.18297 35002 ft 436 kts 124°
2026-04-25 15:34 36.88551 23.23377 34999 ft 436 kts 124°
2026-04-25 15:35 36.82549 23.33570 34991 ft 437 kts 124°
2026-04-25 15:36 36.77139 23.42734 34993 ft 437 kts 124°
2026-04-25 15:36 36.73513 23.48829 34998 ft 437 kts 124°
2026-04-25 15:37 36.69896 23.54914 34671 ft 442 kts 123°
2026-04-25 15:37 36.68042 23.58030 34437 ft 442 kts 123°
2026-04-25 15:37 36.66207 23.61100 34201 ft 442 kts 124°
2026-04-25 15:38 36.64370 23.64169 33768 ft 442 kts 124°
2026-04-25 15:38 36.62522 23.67262 32818 ft 447 kts 124°
2026-04-25 15:38 36.60693 23.70329 32092 ft 447 kts 124°
2026-04-25 15:38 36.58852 23.73414 31591 ft 441 kts 124°
2026-04-25 15:39 36.57033 23.76458 31025 ft 437 kts 124°
2026-04-25 15:39 36.55222 23.79480 30466 ft 434 kts 124°
2026-04-25 15:39 36.53421 23.82479 29890 ft 431 kts 124°
2026-04-25 15:39 36.51636 23.85445 29305 ft 426 kts 124°
2026-04-25 15:40 36.49874 23.88367 28762 ft 420 kts 124°
2026-04-25 15:40 36.48694 23.90325 28404 ft 417 kts 124°
2026-04-25 15:40 36.46412 23.94115 27690 ft 411 kts 124°
2026-04-25 15:40 36.44707 23.96950 27162 ft 407 kts 124°
2026-04-25 15:41 36.43022 23.99750 26637 ft 403 kts 124°
2026-04-25 15:41 36.41347 24.02527 26116 ft 400 kts 124°
2026-04-25 15:41 36.39687 24.05277 25605 ft 397 kts 124°
2026-04-25 15:41 36.38044 24.08015 25105 ft 394 kts 123°
2026-04-25 15:42 36.36415 24.10739 24625 ft 392 kts 123°
2026-04-25 15:42 36.34794 24.13447 24118 ft 390 kts 122°
2026-04-25 15:42 36.33184 24.16134 23648 ft 387 kts 122°
2026-04-25 15:42 36.31580 24.18807 23133 ft 384 kts 122°
2026-04-25 15:43 36.29993 24.21452 22675 ft 381 kts 122°
2026-04-25 15:43 36.28420 24.24070 22215 ft 377 kts 122°
2026-04-25 15:43 36.26853 24.26669 21746 ft 375 kts 122°
2026-04-25 15:43 36.25298 24.29242 21286 ft 372 kts 122°
2026-04-25 15:44 36.23666 24.31717 20801 ft 373 kts 131°
2026-04-25 15:44 36.21584 24.33671 20323 ft 379 kts 147°
2026-04-25 15:44 36.19124 24.34877 19800 ft 386 kts 162°
2026-04-25 15:44 36.16439 24.35216 19260 ft 393 kts 179°
2026-04-25 15:45 36.13720 24.34667 18700 ft 397 kts 189°
2026-04-25 15:45 36.11030 24.33898 18118 ft 398 kts 189°
2026-04-25 15:45 36.08333 24.33129 17513 ft 396 kts 189°
2026-04-25 15:45 36.06519 24.32615 17114 ft 395 kts 189°
2026-04-25 15:46 36.02990 24.31614 16360 ft 391 kts 190°
2026-04-25 15:46 36.00347 24.30870 15804 ft 388 kts 189°
2026-04-25 15:46 35.97720 24.30141 15258 ft 385 kts 189°
2026-04-25 15:46 35.95118 24.29423 14722 ft 382 kts 190°
2026-04-25 15:47 35.92533 24.28707 14194 ft 379 kts 190°
2026-04-25 15:47 35.89971 24.27993 13667 ft 376 kts 190°
2026-04-25 15:47 35.87425 24.27282 13155 ft 372 kts 190°
2026-04-25 15:47 35.85005 24.26357 13007 ft 361 kts 206°
2026-04-25 15:48 35.83132 24.24396 12863 ft 352 kts 234°
2026-04-25 15:48 35.82180 24.21686 12542 ft 343 kts 262°
2026-04-25 15:48 35.82087 24.18824 12129 ft 327 kts 273°
2026-04-25 15:48 35.82151 24.16074 11722 ft 315 kts 272°
2026-04-25 15:49 35.82115 24.13412 11279 ft 308 kts 268°
2026-04-25 15:49 35.81871 24.10820 10814 ft 302 kts 261°
2026-04-25 15:49 35.81426 24.08314 10348 ft 297 kts 256°
2026-04-25 15:49 35.80835 24.05904 9891 ft 292 kts 251°
2026-04-25 15:50 35.80111 24.03592 9403 ft 287 kts 247°
2026-04-25 15:50 35.79285 24.01373 8903 ft 283 kts 243°
2026-04-25 15:50 35.78364 23.99244 8411 ft 280 kts 239°
2026-04-25 15:50 35.77356 23.97211 7933 ft 276 kts 236°
2026-04-25 15:51 35.76259 23.95289 7454 ft 273 kts 232°
2026-04-25 15:51 35.75480 23.94079 7138 ft 271 kts 228°
2026-04-25 15:51 35.73794 23.91824 6520 ft 266 kts 223°
2026-04-25 15:51 35.72460 23.90267 6044 ft 262 kts 219°
2026-04-25 15:52 35.71079 23.88826 5570 ft 259 kts 217°
2026-04-25 15:52 35.69657 23.87496 5087 ft 255 kts 213°
2026-04-25 15:52 35.68197 23.86293 4673 ft 249 kts 210°
2026-04-25 15:52 35.66722 23.85234 4273 ft 242 kts 203°
2026-04-25 15:53 35.65137 23.84802 3869 ft 230 kts 172°
2026-04-25 15:53 35.63658 23.85333 3478 ft 217 kts 143°
2026-04-25 15:53 35.62633 23.86507 3415 ft 190 kts 118°
2026-04-25 15:53 35.62074 23.87929 3418 ft 183 kts 107°
2026-04-25 15:54 35.61599 23.89375 3457 ft 182 kts 106°
2026-04-25 15:54 35.61120 23.90824 3399 ft 184 kts 107°
2026-04-25 15:54 35.60644 23.92262 3149 ft 180 kts 107°
2026-04-25 15:54 35.60186 23.93644 3028 ft 168 kts 107°
2026-04-25 15:55 35.59753 23.94945 3004 ft 163 kts 106°
2026-04-25 15:55 35.59328 23.96226 2831 ft 161 kts 106°
2026-04-25 15:55 35.58909 23.97494 2653 ft 161 kts 106°
2026-04-25 15:55 35.58488 23.98769 2522 ft 160 kts 107°
2026-04-25 15:56 35.58073 24.00026 2438 ft 152 kts 105°
2026-04-25 15:56 35.57681 24.01208 2370 ft 147 kts 105°
2026-04-25 15:56 35.57303 24.02355 2317 ft 144 kts 104°
2026-04-25 15:56 35.56926 24.03504 2133 ft 143 kts 104°
2026-04-25 15:57 35.56554 24.04632 1929 ft 142 kts 104°
2026-04-25 15:57 35.56182 24.05760 1730 ft 143 kts 104°
2026-04-25 15:57 35.55808 24.06893 1554 ft 143 kts 104°
2026-04-25 15:57 35.55436 24.08012 1385 ft 141 kts 104°
2026-04-25 15:58 35.55062 24.09147 1212 ft 145 kts 102°
2026-04-25 15:58 35.54689 24.10280 1082 ft 142 kts 104°
2026-04-25 15:58 35.54334 24.11415 869 ft 140 kts 105°
2026-04-25 15:58 35.53981 24.12502 688 ft 137 kts 105°
2026-04-25 15:59 35.53622 24.13587 525 ft 136 kts 105°
2026-04-25 15:59 35.53325 24.14520 494 ft 94 kts 111°
2026-04-25 15:59 35.53165 24.14998 489 ft 29 kts 111°
2026-04-25 15:59 35.53176 24.15124 491 ft 13 kts 25°
2026-04-25 16:00 35.53249 24.15157 488 ft 10 kts 21°
2026-04-25 16:00 35.53272 24.15166 493 ft 10 kts 11°
2026-04-25 16:00 35.53331 24.15045 491 ft 14 kts 291°
2026-04-25 16:00 35.53374 24.14913 497 ft 18 kts 292°
2026-04-25 16:01 35.53424 24.14762 491 ft 20 kts 292°
2026-04-25 16:01 35.53479 24.14594 493 ft 22 kts 291°
2026-04-25 16:01 35.53539 24.14409 494 ft 22 kts 292°
2026-04-25 16:01 35.53604 24.14347 493 ft 10 kts 22°
2026-04-25 16:02 35.53682 24.14343 498 ft 14 kts 310°
2026-04-25 16:02 35.53724 24.14223 490 ft 16 kts 292°
2026-04-25 16:02 35.53768 24.14090 491 ft 13 kts 292°
2026-04-25 16:02 35.53817 24.14089 494 ft 9 kts 23°
2026-04-25 16:03 35.53850 24.14105 489 ft 2 kts 21°
2026-04-25 16:03 35.53855 24.14107 498 ft 0 kts 21°